Location: ????
(32.1228°N, 34.8377°E)
Time: 01:02:25
(UTC+00:00)

Cosmos 468 Rocket - Pass Details

Date: 21 September 2020
Orbit: 745 x 779 km, 74.0° (Epoch: 21 October)

Event Time Altitude Azimuth Distance (km) Brightness Sun altitude
Exits shadow 01:29:07 73° 202° (SSW) 812 3.9 -25.6°
Maximum altitude 01:29:39 88° 283° (WNW) 781 3.9 -25.5°
Drops below altitude 10° 01:34:57 10° 16° (NNE) 2,321 6.9 -24.5°
Sets 01:37:19 0° 17° (NNE) 3,247 7.7 -24.0°
